Temperature
6 6 6 6 6 6 6 6 6 5 4 4 5 5 5 5 5 5 5 4 4 4 4 4 4 4 4 4 4 4 4 4 4 3 3 4 4 3
6 6 6 6 6 6 5 5 5 5 4 4 4 4 4 4 4 4 4 4 4 4 4 4 4 4 4 3 3 3 3 3 3 3 3 3 3 3
5 5 5 5 5 5 5 5 5 5 4 4 4 4 4 4 4 4 4 4 4 4 3 3 3 3 3 3 3 3 3 3 3 3 3 3 3 3
4 4 4 4 4 4 4 4 4 4 4 4 4 4 4 3 3 3 4 4 4 3 3 3 3 2 2 2 2 2 2 2 2 2 2 2 2 2
4 4 4 4 4 4 4 3 4 3 3 3 3 3 3 3 3 3 3 3 3 3 3 3 2 2 2 2 2 2 2 2 2 2 2 2 2 2
3 3 3 3 3 3 3 3 3 3 3 3 3 3 3 3 3 3 3 3 3 3 3 2 2 2 2 1 1 1 1 1 1 1 1 1 2 2
3 3 3 3 3 3 2 2 2 2 2 2 2 2 2 2 2 2 2 2 2 2 2 2 2 2 1 1 1 1 1 1 1 1 1 1 1 1
2 2 2 2 2 2 2 2 2 2 2 1 1 1 2 2 1 1 1 1 1 2 2 2 1 1 1 1 0 0 0 0 0 0 0 0 1 1
2 2 2 2 2 2 2 2 2 1 1 1 1 1 1 1 1 1 1 1 1 1 1 1 1 1 1 0 0 0 -0 -0 -0 -0 -0 0 0 0
1 1 1 1 1 1 1 1 1 1 1 1 1 1 0 0 0 1 1 1 1 0 0 0 0 0 0 -0 -0 -0 -0 -0 -1 -1 -0 -0 -0 -0
1 1 1 1 0 1 0 1 1 1 0 0 0 0 0 0 0 0 -0 -0 0 0 -0 -1 -0 -0 -0 -0 -0 -1 -1 -1 -1 -1 -1 -1 -1 -1
0 0 0 0 0 -0 -0 0 0 0 -0 -0 -0 -0 -0 -0 -0 -0 -1 -1 -1 -1 -1 -1 -1 -1 -1 -1 -1 -1 -1 -1 -1 -1 -1 -1 -1 -1
-0 -0 -0 -0 -0 -0 -1 -0 -1 -0 -1 -1 -1 -1 -1 -1 -1 -1 -1 -1 -1 -1 -1 -2 -2 -2 -2 -2 -1 -1 -1 -1 -1 -1 -2 -2 -2 -2
-0 -0 -0 -1 -1 -1 -1 -1 -1 -1 -1 -1 -1 -1 -1 -1 -1 -1 -1 -1 -2 -2 -2 -2 -2 -2 -3 -3 -2 -2 -2 -2 -2 -2 -2 -2 -2 -2
-1 -1 -1 -1 -1 -1 -1 -1 -2 -2 -2 -2 -2 -2 -2 -1 -2 -2 -2 -2 -2 -2 -2 -2 -2 -3 -3 -3 -3 -3 -2 -2 -2 -2 -2 -2 -2 -3
-2 -2 -2 -2 -2 -2 -2 -2 -2 -2 -2 -2 -2 -2 -2 -2 -2 -2 -2 -2 -2 -2 -2 -3 -3 -3 -3 -3 -3 -3 -3 -3 -3 -3 -3 -3 -3 -3
-2 -2 -2 -2 -2 -2 -2 -2 -2 -3 -3 -3 -3 -3 -3 -3 -3 -3 -3 -3 -3 -3 -3 -3 -3 -3 -3 -3 -3 -3 -3 -3 -3 -3 -3 -3 -3 -3
-3 -3 -3 -3 -3 -3 -3 -3 -3 -3 -3 -3 -3 -3 -3 -3 -3 -3 -3 -3 -3 -3 -3 -3 -3 -3 -3 -3 -3 -3 -3 -3 -3 -3 -3 -3 -3 -3
-3 -3 -3 -3 -3 -3 -3 -3 -3 -4 -4 -4 -4 -4 -4 -4 -4 -4 -4 -4 -4 -4 -4 -4 -4 -4 -4 -4 -4 -4 -4 -4 -4 -3 -3 -4 -4 -3
-4 -4 -4 -4 -4 -4 -4 -4 -4 -4 -4 -4 -4 -5 -4 -4 -4 -5 -5 -5 -4 -4 -4 -4 -4 -4 -5 -5 -4 -4 -4 -4 -4 -4 -4 -4 -4 -4
-4 -4 -4 -4 -4 -4 -4 -4 -5 -5 -5 -5 -5 -5 -5 -5 -5 -5 -5 -5 -5 -5 -5 -5 -4 -4 -4 -5 -5 -4 -4 -4 -4 -4 -4 -4 -4 -4
-4 -4 -4 -4 -4 -4 -5 -5 -5 -5 -5 -5 -5 -5 -5 -5 -5 -5 -5 -5 -5 -5 -5 -5 -5 -5 -5 -5 -4 -4 -4 -4 -4 -5 -5 -5 -5 -5
-5 -5 -5 -5 -5 -5 -5 -5 -5 -6 -6 -6 -6 -6 -6 -6 -6 -6 -6 -6 -5 -5 -5 -5 -5 -5 -5 -5 -5 -4 -4 -4 -4 -4 -4 -5 -5 -5
Wind_Speed
2 1 1 1 2 2 2 3 3 3 4 3 2 2 2 3 4 3 4 5 5 5 6 6 6 6 6 7 7 7 8 8 9 10 10 11 11 11
1 1 1 1 0 1 2 1 2 3 3 3 3 2 3 3 4 3 5 5 5 5 5 6 6 5 6 6 7 7 7 8 9 10 10 11 11 11
1 2 1 1 0 0 1 1 1 2 3 3 2 2 2 2 3 3 4 4 5 5 5 5 5 5 6 6 7 6 7 8 9 9 10 10 10 11
2 2 2 1 1 0 1 1 2 2 3 3 2 2 2 3 2 3 3 4 4 5 5 4 4 5 6 6 6 6 6 7 8 9 9 10 10 11
3 3 2 2 2 1 1 1 2 1 1 2 2 2 2 2 2 2 3 3 4 5 5 5 5 6 6 6 6 6 6 6 7 8 9 9 10 10
2 3 3 4 4 3 2 2 1 1 1 1 2 2 2 2 1 2 3 2 3 4 4 5 5 5 5 5 5 5 6 6 7 8 8 9 9 10
1 2 3 3 4 3 2 2 2 1 1 1 2 2 1 1 2 2 3 3 3 2 2 3 3 3 5 6 6 6 6 6 7 8 8 8 9 9
2 2 2 2 3 3 3 2 3 2 2 2 3 3 3 3 2 2 2 2 3 2 1 4 2 3 4 6 7 7 6 7 7 7 7 8 8 9
2 2 2 2 2 2 2 2 2 3 3 3 4 4 4 4 3 3 3 2 3 2 1 3 2 3 5 7 7 7 6 6 6 6 7 7 8 9
2 3 3 2 2 2 2 2 2 3 4 3 4 5 4 3 4 4 4 3 3 2 1 3 2 3 4 6 7 6 6 6 6 7 7 8 8 8
2 2 3 3 4 2 2 3 2 3 3 4 5 5 5 4 2 1 1 1 3 3 1 1 2 3 3 3 5 5 6 6 7 7 7 8 8 8
2 2 3 3 3 3 2 3 3 3 2 2 3 4 4 4 4 3 3 2 2 2 2 1 1 1 2 2 3 4 6 7 7 7 8 8 7 5
2 2 3 3 3 3 3 3 3 2 1 1 2 2 2 2 3 3 3 3 3 3 2 1 1 1 2 3 3 3 4 4 5 7 8 8 7 5
3 2 3 3 3 3 3 2 2 1 1 1 1 2 2 3 3 3 4 4 4 5 5 3 2 3 2 3 3 2 3 4 4 4 6 7 7 8
2 3 2 2 2 2 2 2 1 1 1 1 2 3 3 3 2 2 3 3 3 4 4 4 3 3 3 3 3 2 3 3 3 3 4 4 4 4
2 2 2 1 1 1 1 1 1 1 1 2 2 2 2 2 2 2 2 2 2 2 3 4 4 3 3 3 3 3 3 2 3 3 4 4 5 5
1 0 0 0 1 1 1 1 1 1 1 1 1 2 2 2 2 2 2 2 2 2 3 2 3 3 3 3 3 3 3 3 3 3 3 4 4 4
2 1 1 1 2 2 2 1 1 1 1 1 1 2 2 2 2 2 2 2 3 3 2 2 2 2 2 2 3 4 3 3 3 3 2 3 5 4
2 2 2 2 2 2 2 2 2 2 2 2 2 2 2 2 2 2 2 3 3 3 3 2 2 2 3 4 3 4 3 3 2 2 3 3 4 5
2 3 3 3 3 3 3 3 3 2 2 2 2 2 2 2 2 3 3 3 3 3 3 3 3 3 4 4 3 3 5 3 2 3 3 3 3 5
3 3 3 3 3 3 3 3 3 3 3 3 3 3 3 2 3 3 3 4 4 3 4 4 5 5 2 1 2 2 3 4 4 3 2 2 3 3
3 3 3 3 3 3 3 3 3 3 3 3 3 3 3 3 3 4 3 3 4 4 4 4 3 2 2 3 3 3 3 3 4 3 3 2 1 2
3 3 3 3 3 3 3 3 4 3 3 3 3 3 3 3 3 3 3 3 4 4 3 3 2 1 2 3 3 2 2 2 2 2 3 4 4 5
Wind_Direction
174 183 219 241 214 216 203 188 187 230 250 248 248 254 257 259 276 275 287 290 296 301 307 315 320 326 332 330 327 327 332 335 332 329 326 325 322 322
162 161 220 242 238 214 203 206 198 207 241 241 239 253 250 272 278 272 272 284 287 292 301 310 317 323 328 328 324 324 330 330 329 327 326 323 321 320
165 170 210 219 195 272 222 204 212 200 237 264 254 258 237 260 288 280 275 270 278 285 297 306 316 322 324 324 325 325 326 326 326 326 325 325 325 324
192 182 207 194 168 245 244 231 231 220 213 249 271 264 253 248 260 266 284 282 283 281 292 300 310 319 322 325 328 326 326 329 331 331 330 327 325 324
195 195 206 189 205 222 224 235 240 234 211 223 261 268 266 262 271 283 281 279 293 287 289 292 296 305 313 319 322 324 329 332 336 337 336 334 332 327
203 204 207 204 209 211 214 215 216 207 196 207 248 275 274 267 248 266 290 293 293 298 298 297 295 300 302 306 309 316 322 327 331 334 335 336 335 333
215 220 219 211 210 211 209 208 198 200 212 228 243 268 273 263 264 263 278 297 285 280 293 293 286 283 292 292 292 303 312 317 321 327 332 335 336 336
210 231 226 218 222 227 220 211 202 200 215 230 249 251 259 254 256 261 270 302 291 279 289 290 269 272 272 277 286 296 301 307 312 319 325 328 332 333
212 225 244 240 225 228 239 247 238 235 223 222 242 252 251 243 237 245 246 255 260 259 277 280 276 274 273 282 287 289 295 300 307 314 320 323 326 328
224 226 228 245 237 217 219 235 246 250 249 246 244 252 254 240 222 234 239 252 274 267 221 258 272 278 291 281 284 288 297 305 312 317 320 319 320 320
242 233 231 243 245 230 209 230 257 273 278 267 269 277 283 282 270 228 244 252 286 276 227 227 264 293 288 271 274 283 297 302 302 306 313 314 314 314
253 246 244 248 248 230 219 222 242 262 275 301 298 292 289 282 267 230 218 235 277 272 230 228 256 302 296 276 273 280 286 289 294 301 307 310 313 312
247 263 264 260 243 235 241 237 248 260 253 257 272 286 294 289 288 278 241 220 239 258 239 218 235 232 245 282 285 273 274 282 286 293 297 303 307 309
240 251 260 262 247 244 252 264 277 296 275 277 290 291 288 287 290 289 274 259 251 253 243 222 227 234 250 274 279 287 285 279 281 286 287 299 300 302
251 260 270 266 267 263 267 271 286 286 269 273 277 287 287 280 284 291 288 284 290 285 259 249 243 240 240 255 266 281 290 284 274 284 287 285 283 290
265 260 267 264 284 302 329 317 291 245 245 251 276 291 306 307 292 280 275 286 290 296 300 272 253 235 246 258 257 271 271 266 283 288 288 288 282 275
226 241 223 242 301 305 312 320 314 317 300 290 291 300 305 311 317 315 297 297 271 284 301 313 303 281 253 238 255 262 266 275 282 287 290 295 291 278
199 202 220 226 242 254 259 273 277 273 275 280 280 277 282 285 292 307 312 287 277 277 278 291 318 332 327 284 241 249 259 271 288 288 281 283 292 292
201 211 224 231 241 243 246 249 256 262 261 261 268 274 282 283 283 284 289 297 287 280 278 276 271 263 272 282 276 238 248 279 289 286 270 264 278 290
219 224 230 234 238 242 245 251 254 254 259 262 264 269 271 277 282 280 279 277 282 286 284 271 252 249 248 257 265 277 264 255 260 274 283 287 287 295
230 234 235 237 243 244 245 247 246 248 254 256 262 264 262 262 267 273 275 282 281 277 279 275 266 266 258 235 267 281 286 270 257 253 265 286 304 320
235 237 238 238 239 242 244 244 249 252 251 251 258 261 259 261 262 265 269 275 275 275 277 280 285 273 233 237 260 273 296 319 318 300 267 254 241 263
238 241 239 237 236 239 239 239 243 250 251 252 256 258 258 261 262 263 266 270 279 280 287 293 297 283 255 245 254 271 283 304 323 334 326 323 298 291
Height
1497 1497 1498 1498 1499 1500 1500 1500 1500 1499 1498 1499 1500 1500 1500 1501 1500 1500 1499 1498 1497 1496 1495 1494 1493 1492 1490 1489 1487 1486 1485 1483 1482 1480 1479 1477 1475 1473
1493 1494 1495 1495 1495 1495 1496 1496 1497 1496 1495 1495 1496 1496 1497 1497 1497 1496 1496 1495 1494 1493 1492 1491 1490 1488 1487 1486 1484 1483 1482 1481 1479 1477 1476 1474 1472 1470
1490 1490 1490 1491 1491 1492 1492 1492 1492 1493 1492 1492 1493 1493 1493 1493 1493 1493 1492 1491 1490 1489 1488 1487 1486 1485 1484 1482 1481 1480 1478 1477 1476 1474 1472 1470 1469 1467
1486 1486 1486 1487 1487 1488 1488 1488 1488 1489 1489 1488 1488 1489 1489 1489 1489 1489 1488 1487 1487 1486 1485 1484 1483 1482 1480 1479 1477 1476 1475 1474 1472 1470 1469 1467 1465 1463
1482 1483 1483 1484 1484 1484 1484 1484 1485 1485 1485 1485 1485 1485 1485 1485 1485 1485 1485 1484 1483 1482 1482 1481 1480 1478 1477 1476 1475 1474 1472 1470 1469 1467 1466 1464 1462 1460
1479 1480 1480 1480 1481 1481 1481 1481 1481 1481 1481 1481 1481 1481 1481 1481 1481 1480 1480 1480 1479 1479 1478 1477 1476 1475 1474 1473 1472 1470 1469 1468 1466 1464 1462 1460 1458 1456
1475 1476 1477 1477 1477 1478 1477 1477 1478 1477 1477 1478 1478 1477 1477 1477 1477 1476 1476 1475 1475 1475 1474 1473 1472 1471 1470 1469 1468 1467 1466 1464 1463 1461 1459 1457 1455 1453
1472 1472 1473 1473 1474 1474 1474 1474 1475 1474 1474 1474 1474 1474 1473 1473 1473 1473 1472 1471 1470 1471 1470 1469 1468 1467 1466 1465 1464 1463 1462 1461 1460 1458 1456 1455 1453 1451
1468 1469 1469 1470 1470 1470 1470 1470 1471 1471 1471 1471 1471 1470 1470 1470 1470 1469 1469 1468 1467 1466 1466 1464 1464 1463 1463 1462 1461 1460 1459 1458 1456 1455 1453 1451 1450 1448
1465 1466 1466 1466 1466 1466 1466 1466 1467 1467 1467 1467 1467 1467 1467 1467 1466 1466 1465 1465 1464 1463 1462 1460 1459 1459 1459 1458 1457 1457 1456 1454 1453 1451 1450 1448 1446 1445
1462 1462 1462 1462 1463 1463 1463 1463 1463 1463 1463 1463 1463 1463 1463 1462 1462 1462 1461 1460 1458 1458 1458 1457 1455 1455 1454 1454 1454 1453 1452 1451 1450 1448 1447 1445 1443 1441
1458 1458 1459 1459 1459 1459 1459 1459 1459 1459 1459 1459 1459 1459 1459 1458 1458 1457 1456 1455 1454 1454 1453 1453 1452 1452 1450 1450 1450 1450 1449 1448 1446 1445 1443 1442 1440 1438
1454 1454 1455 1456 1456 1456 1456 1456 1456 1456 1455 1455 1455 1455 1454 1453 1453 1453 1452 1452 1451 1450 1450 1450 1449 1448 1448 1446 1446 1446 1445 1444 1442 1441 1440 1438 1437 1435
1451 1451 1451 1452 1452 1452 1452 1452 1452 1452 1451 1451 1451 1450 1450 1449 1449 1449 1448 1448 1448 1447 1447 1446 1445 1445 1444 1442 1442 1441 1441 1440 1439 1438 1436 1435 1434 1432
1447 1448 1448 1448 1448 1448 1448 1449 1448 1448 1447 1447 1447 1447 1446 1446 1445 1445 1444 1444 1444 1443 1442 1442 1441 1441 1441 1440 1438 1437 1437 1436 1435 1434 1433 1432 1430 1428
1444 1444 1445 1445 1445 1445 1445 1445 1445 1444 1444 1443 1443 1443 1443 1442 1442 1441 1441 1440 1439 1439 1439 1438 1437 1437 1436 1436 1435 1434 1434 1433 1431 1431 1430 1428 1427 1425
1440 1440 1440 1440 1441 1441 1441 1441 1441 1441 1440 1440 1440 1440 1439 1439 1438 1438 1437 1436 1435 1434 1434 1434 1434 1434 1433 1433 1431 1430 1430 1429 1428 1427 1426 1425 1424 1422
1436 1436 1436 1436 1437 1437 1437 1437 1437 1437 1437 1437 1437 1436 1436 1435 1435 1435 1434 1433 1432 1431 1430 1430 1430 1429 1429 1428 1429 1427 1426 1425 1425 1424 1423 1422 1420 1420
1432 1432 1432 1433 1433 1433 1433 1433 1433 1433 1433 1433 1433 1433 1433 1432 1432 1431 1430 1430 1429 1428 1428 1427 1427 1426 1425 1424 1424 1424 1423 1422 1421 1421 1420 1419 1417 1416
1428 1428 1428 1429 1429 1429 1429 1429 1429 1429 1429 1429 1429 1429 1429 1429 1428 1427 1427 1427 1426 1425 1425 1424 1423 1423 1422 1422 1421 1420 1420 1419 1418 1417 1417 1416 1415 1414
1423 1424 1424 1425 1425 1425 1425 1425 1425 1425 1425 1425 1425 1425 1425 1425 1425 1424 1424 1423 1423 1422 1421 1420 1420 1420 1420 1420 1418 1417 1417 1417 1416 1415 1414 1413 1411 1410
1420 1420 1420 1421 1421 1421 1421 1421 1421 1421 1421 1421 1421 1421 1421 1421 1421 1421 1420 1420 1419 1419 1418 1418 1417 1417 1416 1416 1415 1414 1414 1414 1413 1413 1412 1411 1410 1408
1416 1416 1416 1417 1417 1417 1417 1417 1417 1417 1417 1417 1417 1417 1417 1417 1417 1417 1417 1417 1416 1416 1415 1415 1414 1414 1413 1413 1412 1412 1411 1411 1411 1410 1410 1409 1408 1407